Weather in Anapolis

Brazil     16°20′00″S   48°56′04″W
temp.,
°C
wind,
m/s
gust,
m/s
humid.,
%
clouds,
%
prec.,
mm/h
press.,
hPa
HPBL,
m
5 december, sun
sun500:00+19e229397 0.0 101518
03:00+18e2293100 0.0 101331
06:00+18ene229324 0.0 101527
09:00+24n22733 0.1 1015658
12:00+26nnw226599 1.0 10141100
15:00+26n116569 2.5 10111030
18:00+22nw01833 1.5 101212
21:00+19ene22920 2.4 101414
6 december, mon
mon600:00+19ne11940 0.2 101412
03:00+18nne11950 1.0 101311
06:00+18nnw11950 0.0 101411
09:00+23nw237742 0.8 1014531
12:00+26nw326355 0.5 10131452
15:00+25nw3368100 1.7 1011857
18:00+20se129588 7.5 101139
21:00+19nnw11945 8.7 101211
7 december, tue
tue700:00+18nnw119473 2.9 101214
03:00+19n119298 4.4 101116
06:00+18n11935 0.0 101111
09:00+24w23735 2.2 1012674
12:00+26wsw236112 0.7 10101362
15:00+26wnw33695 2.6 1008941
18:00+22wnw23891 2.3 100862
21:00+19nnw00911 3.8 101011
8 december, wed
wed800:00+19wnw11876 1.4 101011
03:00+18nw019143 3.3 100911
06:00+18ne00885 0.0 101011
09:00+24nnw226978 0.7 1011506
12:00+25wnw23715 3.3 1010785
15:00+25nw23684 5.3 1008735
18:00+21e0189100 2.6 100827
21:00+19nw118734 3.8 101111
9 december, thu
thu900:00+20w118898 0.0 101111
03:00+19w118799 1.1 101011
06:00+19ssw1187100 0.1 101111
09:00+23n117197 0.3 1012422
12:00+26nw326185 0.6 10101301
15:00+26nw336431 1.8 1008857
18:00+22nw358754 1.4 1009148
21:00+21w1184100 3.0 101011